Temp
1 2 2 2 2 2 3 3 3 3 3 3 3 2 2 3 3 4 4 4 4 4 4 4 5 5 5 5 5 6 5 7 7 7 8 7 7 8 8 8 8 8 7 7 8
-2 -1 1 2 2 2 2 2 2 3 2 3 2 2 2 2 2 3 4 4 3 4 4 4 4 4 4 5 5 5 5 6 7 7 7 7 7 7 8 7 8 8 7 7 8
-2 -2 -2 -0 1 1 2 2 2 2 2 2 2 2 2 1 2 3 4 3 2 3 3 3 3 4 4 3 4 5 5 6 6 6 6 6 6 7 7 8 8 6 7 7 8
-2 -2 -2 -2 -2 -0 1 1 1 1 2 2 1 1 1 0 0 2 3 2 2 2 2 2 3 3 3 3 4 4 4 5 5 5 5 5 5 5 6 7 6 7 8 7 7
-3 -2 -2 -2 -2 -2 -1 -0 0 1 1 1 1 0 0 0 2 1 2 3 2 2 2 2 2 2 2 2 3 3 4 4 4 5 6 5 5 5 5 4 5 6 7 7 7
-2 -2 -2 -2 -2 -2 -2 -2 -2 -1 -0 -0 0 -1 -1 0 0 1 1 2 2 2 2 2 2 2 2 1 2 3 3 3 3 4 5 5 5 4 5 5 5 6 6 7 7
-1 -2 -2 -3 -3 -3 -3 -2 -3 -3 -2 -2 -2 -1 -1 0 -0 -0 1 1 1 1 2 1 2 2 2 2 2 3 3 4 4 4 4 5 5 5 4 5 5 5 6 6 7
-2 -2 -3 -3 -3 -3 -3 -3 -3 -3 -3 -3 -2 -2 -2 -1 -1 0 1 0 -0 1 1 1 1 1 1 1 1 1 1 2 3 3 3 4 5 4 4 5 5 6 6 6 6
-4 -3 -3 -3 -3 -3 -3 -3 -3 -4 -4 -3 -3 -3 -3 -1 -0 -0 0 0 -0 -0 1 1 0 1 1 1 1 1 1 2 2 3 2 2 3 4 5 4 6 6 6 5 5
-6 -5 -5 -4 -4 -3 -3 -4 -4 -5 -5 -4 -4 -4 -4 -1 -1 -1 -1 -1 -1 -1 -1 -0 -0 1 -0 0 1 0 0 1 1 3 2 2 2 4 4 5 6 6 6 5 5
-7 -6 -6 -5 -4 -4 -4 -4 -5 -5 -5 -3 -3 -3 -3 -2 -1 -1 -1 -1 -1 -1 -1 -1 -1 0 0 1 1 1 1 2 3 2 2 1 2 3 4 4 6 6 6 6 5
-7 -7 -7 -6 -5 -4 -4 -4 -2 -3 -4 -4 -3 -4 -4 -3 -2 -2 -2 -2 -2 -2 -1 -2 -1 2 -1 -0 -0 -0 0 1 1 2 1 1 2 3 3 3 6 7 7 7 7
-7 -7 -7 -7 -6 -5 -4 -3 -4 -4 -5 -5 -4 -5 -4 -4 -3 -2 -2 -2 -2 -3 -2 -2 2 -1 -1 -1 -1 -1 0 1 -0 1 1 1 2 3 6 5 6 7 8 7 8
-8 -7 -7 -7 -7 -5 -4 -4 -4 -5 -5 -5 -6 -4 -4 -4 -3 -2 -2 -2 -3 -3 -3 -2 -1 -1 -1 -1 -1 -1 -0 -0 -0 0 1 2 2 4 6 6 5 7 8 8 8
-8 -8 -8 -8 -7 -6 -4 -4 -5 -5 -4 -5 -5 -4 -5 -4 -4 -3 -2 -3 -4 -3 -3 -2 -2 -2 -2 -1 -1 -1 -1 -1 -0 -0 -0 0 0 3 4 5 5 5 9 9 9
-8 -8 -8 -9 -8 -5 -5 -5 -5 -5 -4 -5 -5 -5 -5 -5 -5 -4 -3 -4 -4 -4 -3 -2 -2 -2 -1 -1 -1 -1 -1 -1 -1 -1 -1 -0 1 4 4 7 5 6 8 9 9
-9 -9 -9 -9 -7 -6 -5 -5 -6 -6 -5 -6 -5 -5 -5 -5 -5 -4 -3 -4 -5 -5 -4 -3 -3 -3 -2 -2 -2 -1 -1 -1 -1 -1 1 2 2 2 5 5 5 7 7 8 9
-9 -9 -9 -8 -7 -7 -6 -6 -6 -6 -6 -4 -6 -5 -5 -5 -5 -5 -4 -5 -5 -4 -3 -3 -2 -3 -2 -2 -1 -1 -2 -1 1 1 3 4 2 4 5 6 7 8 8 8 9
-9 -9 -9 -8 -8 -7 -7 -6 -5 -5 -4 -6 -6 -6 -5 -5 -5 -5 -5 -5 -4 -4 -3 -2 -2 -1 -2 -1 -2 -1 -2 0 -2 -1 -2 0 3 4 5 6 7 7 8 8 8
-9 -9 -9 -8 -8 -7 -6 -5 -5 -5 -4 -5 -6 -6 -5 -5 -5 -5 -5 -5 -5 -4 -4 -2 -2 -2 -1 -3 -2 -2 -1 -1 -1 0 0 3 4 5 6 5 6 7 7 8 8
-9 -9 -8 -8 -8 -8 -7 -6 -5 -6 -4 -5 -5 -5 -5 -5 -5 -5 -4 -4 -5 -5 -5 -4 -3 -2 -2 -3 -2 -3 -3 -2 -2 -1 1 3 5 5 5 5 6 6 7 6 7
-8 -9 -8 -8 -8 -7 -7 -6 -5 -6 -5 -4 -5 -4 -5 -6 -5 -5 -4 -4 -4 -4 -5 -5 -4 -3 -3 -3 -2 -2 -2 -2 -2 -1 -1 1 2 4 5 6 6 5 5 5 5
-8 -9 -9 -8 -8 -8 -7 -6 -6 -6 -5 -5 -5 -4 -5 -6 -6 -5 -4 -4 -5 -5 -4 -5 -4 -4 -4 -3 -3 -3 -2 -2 -2 -2 -1 -1 1 3 3 4 5 6 5 5 5
-8 -8 -8 -9 -7 -7 -6 -6 -6 -6 -6 -5 -5 -4 -4 -5 -5 -5 -5 -5 -6 -5 -5 -5 -4 -4 -3 -1 -1 -3 -4 -3 -2 -2 -2 -1 0 3 2 3 4 4 5 6 5
-9 -7 -7 -8 -8 -7 -6 -6 -6 -6 -5 -5 -5 -3 -3 -6 -6 -5 -6 -6 -6 -6 -5 -5 -5 -5 -3 -3 -2 -2 -3 -3 -3 -3 -2 -1 -0 3 2 2 2 2 3 5 5
-8 -7 -8 -8 -7 -7 -6 -7 -6 -6 -5 -5 -4 -5 -3 -2 -3 -4 -6 -6 -6 -6 -5 -5 -5 -5 -5 -4 -4 -4 -4 -4 -3 -3 -4 -3 -3 3 3 2 2 1 1 2 4
-8 -8 -6 -8 -7 -7 -7 -6 -6 -5 -6 -5 -4 -4 -4 -4 -5 -5 -6 -5 -5 -5 -5 -5 -6 -6 -5 -4 -5 -5 -3 -3 -3 -3 -3 -3 -0 2 2 1 -0 0 2 2 3
Height
3054 3058 3063 3068 3073 3078 3082 3088 3093 3098 3102 3107 3112 3118 3122 3125 3128 3130 3132 3138 3143 3148 3150 3153 3155 3158 3161 3162 3166 3168 3170 3168 3169 3169 3171 3169 3172 3172 3173 3173 3174 3175 3175 3175 3175
3047 3050 3055 3060 3065 3070 3075 3080 3086 3091 3096 3102 3107 3112 3118 3121 3123 3123 3130 3132 3138 3143 3146 3149 3151 3154 3157 3160 3161 3163 3165 3166 3169 3170 3170 3170 3169 3170 3171 3171 3172 3173 3173 3172 3173
3040 3044 3048 3052 3057 3062 3067 3073 3078 3084 3090 3095 3100 3105 3111 3118 3119 3115 3122 3128 3132 3137 3141 3145 3147 3150 3153 3155 3157 3159 3159 3164 3166 3167 3167 3167 3165 3165 3167 3169 3171 3173 3169 3170 3170
3032 3037 3041 3046 3050 3055 3060 3065 3071 3077 3083 3088 3094 3100 3106 3113 3113 3110 3116 3123 3127 3131 3136 3139 3142 3145 3148 3150 3154 3153 3156 3159 3161 3161 3159 3160 3162 3161 3161 3164 3166 3168 3167 3167 3168
3023 3028 3034 3039 3044 3048 3053 3058 3064 3069 3075 3081 3088 3095 3100 3101 3101 3104 3111 3117 3121 3126 3129 3135 3138 3141 3142 3147 3151 3146 3152 3155 3154 3154 3155 3155 3154 3155 3155 3158 3161 3161 3164 3163 3164
3013 3021 3026 3031 3037 3042 3047 3052 3057 3062 3068 3075 3081 3088 3092 3091 3097 3101 3108 3113 3117 3122 3125 3131 3133 3135 3137 3141 3144 3146 3143 3148 3149 3149 3149 3149 3150 3151 3150 3152 3154 3154 3158 3159 3160
3001 3010 3019 3025 3030 3036 3041 3047 3052 3057 3062 3069 3074 3080 3084 3087 3092 3097 3104 3109 3113 3116 3120 3126 3129 3132 3132 3135 3134 3139 3140 3142 3143 3143 3144 3144 3140 3140 3146 3148 3146 3147 3151 3153 3154
2988 2998 3008 3017 3023 3030 3037 3043 3047 3053 3058 3063 3069 3074 3072 3080 3085 3092 3099 3102 3109 3113 3116 3120 3122 3124 3125 3129 3131 3134 3134 3135 3139 3142 3141 3141 3127 3141 3142 3142 3141 3143 3145 3146 3148
2977 2986 2997 3008 3016 3023 3032 3039 3043 3047 3053 3057 3062 3065 3066 3073 3079 3088 3092 3098 3103 3107 3110 3115 3118 3118 3120 3123 3125 3126 3124 3128 3133 3139 3137 3134 3127 3135 3137 3136 3135 3137 3139 3140 3142
2965 2975 2985 2997 3007 3016 3026 3033 3037 3041 3045 3051 3055 3062 3059 3065 3073 3077 3086 3093 3096 3100 3105 3110 3112 3110 3112 3113 3110 3117 3121 3125 3126 3130 3129 3128 3123 3127 3130 3130 3131 3130 3131 3133 3135
2954 2963 2975 2986 2998 3009 3019 3024 3028 3031 3033 3038 3042 3048 3057 3063 3067 3071 3080 3088 3091 3095 3097 3100 3107 3104 3106 3109 3116 3119 3119 3119 3121 3127 3124 3120 3120 3121 3123 3121 3122 3122 3123 3124 3126
2944 2954 2964 2976 2988 3000 3010 3009 3015 3021 3027 3033 3040 3048 3051 3053 3060 3066 3076 3080 3084 3086 3091 3098 3097 3096 3106 3109 3110 3109 3113 3112 3116 3123 3117 3117 3112 3114 3113 3111 3113 3115 3116 3117 3119
2934 2945 2954 2966 2980 2989 2998 3002 3017 3019 3024 3027 3034 3041 3044 3051 3055 3060 3068 3073 3078 3082 3084 3088 3087 3101 3102 3104 3106 3107 3108 3108 3110 3117 3112 3111 3102 3105 3100 3102 3104 3105 3106 3109 3111
2924 2934 2945 2958 2970 2978 2987 2995 3006 3017 3017 3020 3029 3032 3039 3046 3052 3056 3064 3072 3075 3076 3082 3084 3088 3094 3094 3097 3102 3100 3104 3105 3107 3113 3108 3111 3093 3094 3095 3095 3094 3094 3096 3099 3103
2916 2925 2935 2946 2957 2965 2982 2993 2998 3009 3000 3009 3018 3026 3033 3041 3048 3051 3057 3063 3066 3071 3078 3075 3083 3086 3088 3090 3097 3091 3103 3101 3104 3104 3104 3101 3100 3070 3090 3083 3085 3087 3088 3091 3095
2909 2918 2928 2937 2949 2964 2978 2988 2992 2982 2981 2993 3005 3014 3024 3032 3042 3045 3052 3057 3064 3071 3073 3072 3078 3080 3082 3089 3092 3094 3097 3098 3098 3100 3093 3088 3093 3069 3074 3072 3080 3081 3082 3086 3088
2899 2911 2919 2931 2937 2955 2968 2977 2980 2966 2973 2985 2991 3003 3015 3024 3034 3039 3045 3049 3054 3062 3062 3065 3068 3074 3077 3081 3085 3088 3093 3091 3090 3089 3080 3081 3084 3068 3065 3070 3073 3075 3075 3080 3081
2896 2906 2912 2923 2937 2949 2956 2960 2966 2959 2967 2979 2988 3002 3011 3019 3029 3034 3040 3044 3049 3052 3057 3063 3066 3064 3065 3071 3075 3076 3080 3080 3074 3074 3069 3070 3068 3058 3062 3061 3065 3067 3070 3074 3076
2891 2897 2906 2915 2928 2936 2946 2933 2943 2953 2965 2972 2986 2998 3008 3014 3023 3029 3031 3035 3040 3045 3052 3054 3054 3060 3062 3064 3075 3073 3070 3076 3077 3072 3075 3070 3058 3059 3059 3057 3060 3062 3064 3066 3068
2882 2891 2899 2911 2921 2929 2929 2930 2936 2950 2960 2969 2973 2987 2992 3002 3015 3019 3026 3026 3033 3038 3048 3051 3051 3054 3057 3063 3066 3067 3073 3069 3065 3062 3059 3056 3055 3047 3051 3053 3054 3054 3057 3059 3059
2880 2887 2896 2906 2916 2919 2917 2933 2941 2951 2959 2965 2968 2972 2986 2993 3006 3011 3016 3025 3029 3035 3042 3048 3051 3052 3052 3053 3054 3059 3058 3062 3060 3059 3054 3050 3041 3046 3049 3053 3049 3050 3050 3053 3054
2865 2881 2891 2899 2906 2909 2918 2929 2937 2946 2956 2967 2968 2972 2977 2989 3002 3010 3013 3023 3025 3032 3033 3039 3046 3046 3047 3049 3052 3053 3050 3054 3051 3050 3050 3048 3032 3044 3046 3047 3047 3044 3042 3042 3046
2865 2880 2888 2893 2898 2905 2915 2925 2934 2945 2953 2962 2964 2970 2978 2990 3005 3008 3014 3021 3022 3026 3030 3036 3037 3041 3041 3045 3044 3041 3041 3045 3045 3046 3040 3041 3033 3037 3041 3044 3041 3039 3041 3039 3039
2866 2876 2884 2889 2898 2906 2912 2922 2932 2945 2948 2961 2964 2970 2981 2990 2996 3002 3010 3015 3018 3023 3028 3030 3032 3033 3030 3030 3035 3035 3034 3037 3040 3038 3031 3033 3032 3016 3030 3033 3034 3039 3038 3037 3035
2867 2869 2873 2882 2894 2905 2916 2920 2924 2936 2950 2959 2964 2972 2977 2986 2993 2997 3005 3011 3014 3018 3022 3025 3024 3027 3025 3029 3031 3030 3027 3028 3028 3028 3030 3027 3028 3009 3018 3026 3031 3032 3030 3029 3028
2864 2866 2877 2885 2898 2905 2915 2923 2927 2936 2947 2951 2960 2969 2973 2979 2986 2992 2998 3004 3006 3012 3016 3017 3020 3019 3018 3022 3023 3022 3021 3022 3022 3021 3022 3021 3015 3008 3009 3017 3016 3021 3021 3017 3016
2866 2874 2879 2890 2898 2908 2913 2921 2931 2935 2949 2955 2959 2966 2975 2983 2988 2993 2998 3001 3004 3007 3012 3016 3016 3016 3015 3015 3016 3017 3008 3013 3011 3012 3014 3012 3007 3003 3002 3009 3013 3013 3009 3005 3007
Wind_Speed
43 44 44 44 43 45 48 47 46 45 44 43 43 42 40 41 43 42 42 37 34 29 28 27 25 24 22 23 20 18 18 21 21 18 16 21 20 18 18 17 17 13 13 12 10
36 39 44 43 43 43 45 46 46 46 45 44 43 43 41 36 34 43 43 40 33 31 30 28 25 25 24 24 25 24 19 22 19 18 16 21 24 20 20 17 21 18 16 15 14
38 38 37 41 42 42 43 44 46 46 45 43 43 42 43 38 37 39 41 40 36 33 33 31 30 27 27 25 26 27 27 18 21 19 21 21 27 32 31 27 22 14 17 17 18
42 41 39 37 37 41 41 42 43 45 46 44 42 40 39 35 38 44 42 35 35 34 32 33 32 29 30 27 28 29 29 25 21 21 27 27 27 29 33 39 28 27 33 22 21
50 44 43 41 38 36 37 38 40 42 44 44 42 38 38 40 50 38 33 42 35 37 34 34 34 30 27 20 22 30 29 22 29 30 28 30 26 29 36 29 31 31 35 26 23
54 51 45 43 41 38 34 34 34 38 40 42 41 37 39 47 35 47 42 28 36 36 33 29 33 36 29 25 25 18 30 29 27 30 32 34 33 27 35 32 34 40 40 37 27
58 55 50 46 43 40 34 32 32 32 34 36 34 40 42 46 39 38 45 40 26 31 32 28 32 35 36 36 39 38 35 32 33 33 32 36 41 42 36 26 29 35 37 41 32
59 59 57 50 45 43 37 32 29 29 32 33 34 38 47 45 45 38 45 41 33 30 35 32 29 27 38 35 33 31 32 30 31 24 28 33 48 27 25 30 34 32 36 42 36
55 57 60 56 49 43 40 34 29 29 33 36 38 39 42 47 46 45 38 41 38 33 32 28 26 34 34 33 30 36 27 30 32 27 24 27 36 27 30 30 30 30 34 33 35
50 54 53 62 51 45 42 37 34 33 36 38 38 39 38 45 48 48 45 33 35 36 37 35 28 32 36 27 27 20 25 26 27 24 35 34 37 36 32 37 35 34 33 34 36
53 51 55 62 56 48 43 41 40 38 43 47 47 48 31 40 43 49 47 44 31 36 35 39 35 30 31 29 34 25 18 25 27 24 32 28 33 33 38 40 43 41 39 36 34
53 55 54 56 61 50 45 52 51 47 45 46 47 42 41 38 41 44 38 40 41 37 39 32 38 49 32 27 30 27 28 36 28 22 26 29 35 33 36 38 40 44 43 39 41
53 54 56 58 62 52 53 55 49 48 39 47 49 41 47 39 35 43 43 39 41 37 28 41 48 30 30 33 26 37 35 33 31 16 26 28 41 38 51 46 45 45 47 41 40
49 53 54 54 60 55 62 50 55 50 32 35 46 48 44 39 33 33 40 44 35 33 31 32 34 27 24 36 34 33 35 40 31 29 24 17 21 30 37 34 33 43 48 45 39
45 48 52 51 65 62 63 39 57 47 10 37 47 42 45 44 28 29 32 31 40 35 25 35 25 29 32 30 27 40 28 32 30 33 31 27 16 44 31 41 36 36 42 42 37
42 43 46 50 58 63 58 38 54 31 8 28 49 44 49 42 34 25 24 35 30 31 32 34 24 25 38 35 28 23 24 27 33 41 19 40 34 27 34 47 39 38 40 35 31
42 42 44 50 61 60 55 43 46 13 27 30 47 52 46 41 32 35 35 32 26 29 38 40 35 32 22 28 30 26 27 7 6 7 8 26 28 44 26 22 28 30 36 27 27
35 39 41 47 50 56 45 60 29 25 29 34 40 41 43 37 34 34 31 33 34 29 19 33 31 41 33 32 34 46 33 7 8 4 9 20 13 28 20 27 23 29 35 32 31
37 41 43 47 49 57 49 56 31 45 38 34 34 42 37 38 31 31 35 37 37 37 28 21 33 19 36 46 32 25 34 44 27 41 9 11 25 26 26 35 36 38 36 32 30
36 41 45 46 49 54 54 50 36 39 41 41 31 43 43 49 34 36 33 32 36 37 31 22 18 26 24 24 35 41 30 16 24 6 8 17 34 29 11 19 22 26 23 13 12
39 43 47 49 49 50 50 33 35 47 50 39 27 40 41 52 36 39 29 14 31 28 36 29 20 14 18 27 35 33 40 39 29 29 14 15 24 34 31 36 38 39 37 36 37
48 45 44 49 50 48 61 50 48 42 38 28 26 28 45 47 40 32 32 30 17 31 31 36 15 26 26 19 24 31 36 37 14 15 23 39 40 39 22 14 14 20 31 31 15
47 42 42 47 47 31 40 46 44 47 41 33 26 27 32 36 28 31 24 25 15 27 23 27 24 22 13 20 24 28 34 34 42 43 35 11 27 39 38 39 27 23 15 15 15
44 30 45 47 45 45 34 47 42 38 33 28 23 23 29 32 18 32 24 23 26 20 25 21 27 25 27 25 17 17 25 34 38 39 29 34 44 63 51 31 24 26 29 30 30
47 21 40 51 38 36 41 46 55 44 29 32 25 29 33 32 18 18 27 20 24 31 24 23 22 25 33 27 30 33 28 23 34 42 39 46 47 64 53 45 39 40 37 45 51
60 25 41 41 46 38 43 49 55 43 39 36 36 33 30 30 30 25 26 22 17 27 31 29 17 15 22 26 27 29 34 34 37 39 45 41 49 60 60 52 50 41 34 42 50
38 39 31 46 41 47 43 54 47 39 28 28 32 31 27 21 20 17 20 20 14 18 25 17 16 12 11 9 14 17 39 35 36 38 37 38 53 51 52 50 43 45 49 48 49
Wind_Direction
240 240 238 237 235 236 236 234 233 233 235 233 232 229 234 234 236 234 235 237 237 238 239 239 240 242 237 238 241 240 237 243 240 236 231 243 239 237 236 241 251 260 263 275 279
237 239 238 238 238 235 235 235 234 232 233 233 231 229 225 232 237 239 236 233 234 234 237 235 235 235 237 238 239 236 239 242 248 251 245 248 236 245 243 246 258 257 265 266 268
232 235 238 238 237 237 236 235 233 233 232 232 231 230 231 230 231 237 233 236 233 232 234 235 234 235 237 239 238 239 238 244 249 255 248 246 257 244 249 248 256 256 272 258 264
228 229 232 237 239 238 236 234 233 232 231 230 230 229 231 223 231 240 234 232 231 231 231 232 233 235 237 236 243 243 243 241 246 246 247 250 250 242 254 251 246 249 256 261 260
229 226 229 231 234 239 238 236 233 229 229 228 227 223 223 224 224 232 236 230 232 233 233 234 234 231 234 237 236 246 240 251 247 249 253 254 253 255 248 250 244 250 249 258 255
231 227 225 230 231 234 234 236 234 230 226 225 223 217 218 227 233 232 234 234 234 236 239 233 233 234 229 229 230 244 241 239 258 247 254 254 251 256 249 253 244 247 253 258 254
232 227 223 227 229 230 229 227 233 228 224 221 222 214 218 225 226 227 232 236 232 229 232 236 237 229 229 236 240 238 244 246 244 252 254 258 253 250 255 253 246 245 249 249 248
231 228 222 222 225 227 227 224 221 225 220 214 216 215 221 220 224 225 228 233 231 234 230 231 238 237 234 235 239 237 242 249 245 257 253 255 257 253 264 255 248 244 242 243 244
227 225 220 218 219 223 223 221 218 216 216 209 212 215 222 221 221 222 225 228 223 221 224 232 232 238 229 234 235 236 246 244 255 243 247 251 260 264 257 250 252 252 245 245 249
222 222 218 215 216 218 218 215 213 213 214 209 211 213 218 221 220 221 220 218 221 225 229 232 230 235 239 227 213 218 236 245 250 251 249 254 259 258 255 260 261 258 251 250 246
218 219 213 212 211 214 212 207 203 205 211 210 210 213 217 221 222 220 222 218 221 224 222 220 220 227 215 235 242 234 236 251 259 258 244 251 260 257 259 257 259 258 254 247 243
219 215 212 209 208 211 209 213 215 208 203 210 216 212 213 222 222 220 215 214 215 220 222 222 224 236 228 240 249 232 247 250 254 248 255 256 260 260 258 255 254 260 260 252 250
221 218 216 208 206 208 209 218 212 211 204 210 211 213 218 220 222 219 215 209 214 217 222 223 231 237 232 234 243 240 251 259 251 254 249 264 271 261 257 262 261 258 259 255 252
218 217 218 216 209 204 205 217 211 208 193 201 204 211 218 216 222 225 221 217 212 219 218 229 235 226 226 233 234 247 247 249 259 246 244 238 274 264 260 261 254 256 254 256 253
216 216 217 214 206 205 206 213 207 196 204 197 192 210 212 211 218 212 213 213 218 220 213 224 232 230 232 234 229 245 243 249 242 234 239 239 258 262 256 251 247 253 257 257 257
213 213 214 212 210 206 195 206 197 195 192 165 191 196 204 209 211 211 209 207 214 221 229 235 233 230 234 239 240 247 243 248 250 256 255 241 226 264 253 251 256 259 263 265 260
202 210 210 211 209 203 202 200 195 217 166 163 187 200 203 196 198 210 205 201 199 201 218 228 228 234 229 225 228 231 233 224 223 210 235 243 230 240 256 254 256 256 265 267 264
206 206 209 210 208 206 204 197 203 188 157 182 180 185 187 188 203 202 208 208 212 209 222 221 233 227 221 222 223 218 212 214 215 199 250 246 240 239 265 276 266 263 267 268 271
215 208 207 201 203 209 207 189 192 189 179 161 162 173 190 200 200 194 209 216 219 208 209 210 233 224 231 230 222 231 227 229 262 273 268 237 260 262 251 264 276 280 280 276 272
197 195 202 193 198 200 197 191 194 194 182 172 159 179 185 195 192 194 198 221 216 218 210 223 257 231 235 227 231 234 233 227 212 214 220 230 249 257 265 271 281 283 286 284 280
193 195 196 193 196 211 200 189 186 180 191 173 182 175 190 187 192 193 200 205 212 219 210 222 237 236 219 215 224 224 232 236 255 245 257 264 256 257 266 273 276 278 282 264 268
188 197 197 191 192 202 198 197 188 176 184 184 189 184 185 187 189 197 203 205 216 208 212 213 234 242 245 235 237 236 235 226 225 225 244 248 260 255 265 272 261 276 268 270 249
188 196 198 197 192 197 187 188 173 180 175 182 168 189 190 179 190 202 207 205 195 197 208 211 223 238 256 250 250 240 233 239 235 242 253 253 252 258 260 253 262 273 297 217 274
178 186 189 200 199 196 179 174 164 170 166 183 187 179 171 179 191 195 201 204 210 196 201 198 222 227 235 235 240 231 251 245 242 248 247 244 260 257 259 265 270 263 271 267 266
191 200 178 188 182 183 183 162 164 166 174 181 167 179 174 162 180 182 194 204 205 211 215 210 223 230 242 252 250 262 265 255 238 242 250 256 256 255 259 267 264 276 268 257 268
193 162 188 176 189 186 179 174 171 164 174 178 173 173 185 200 193 186 180 190 195 198 207 220 233 239 251 246 253 265 264 260 259 262 264 258 260 255 262 265 259 261 272 269 276
190 204 185 176 179 169 171 172 171 167 166 174 177 168 180 185 179 172 173 180 187 195 210 222 233 234 253 272 253 252 261 260 263 258 253 253 267 262 268 277 282 286 278 277 278